{"data":{"norad_id":67943,"intl_designator":"2026-037M","name":"STARLINK-36851","alt_names":[],"object_type":"PAYLOAD","status":"ACTIVE","operator":null,"country":"US","launch_date":"2026-02-24","launch_site_code":"AFETR","launch_vehicle":null,"mission":null,"orbit_class":"UNKNOWN","rcs_meters":null,"size_class":null,"mass_kg":null,"dimensions":null,"purposes":["comms"],"wikipedia_slug":null,"has_3d_model":false,"image_url":null,"decayed_at":null,"tle_current":{"epoch":"2026-05-25T04:56:31.501824Z","epoch_age_seconds":47437,"freshness":"FRESH","line1":"1 67943U 26037M   26145.20592016  .00032979  00000+0  12021-2 0  9997","line2":"2 67943  42.9989 118.5289 0000905 261.5840  98.4909 15.27593070 15044","mean_motion":15.2759307,"eccentricity":9.05e-5,"inclination_deg":42.9989,"raan_deg":118.5289,"arg_perigee_deg":261.584,"mean_anomaly_deg":98.4909,"bstar":0.0012021,"rev_number":1504,"period_min":94.265942172676,"perigee_km":482.3890262369,"apogee_km":483.63089383667,"semimajor_km":6861.1469600368,"source":"CELESTRAK","updated_at":"2026-05-25T13:38:21.768544Z"}}}